Résultats de la compétition "Régionale 7 Dourdan" du 13-12-2009 organisée par le comité départemental du 91 - Essonne
     
  Télécharger le fichier CSV.  
     
     

 Circuit "parcours C"

Licence Nom Prénom Temps CN
précédent
Score sur
la course
Différence
4182RAUTURIERMaxime0:38:5747155789+1074
5638TARDYVictor0:41:0451575490+333
19028SCHMIDT-MORGENROTHJacques0:41:5040305390+1360
6961CLOUZEAUJacques0:42:4749235270+347
15093VILLEDIEURemi0:43:0245205239+719
2034BAROUXJacky0:43:3258675179-688
8567BARDESPhilippe0:45:0056705010-660
14024VALENTINTeo0:45:1637944981+1187
4428VERMEERSCHThierry0:45:2646824963+281
16588BESCHFrederic0:45:4247574934+177
8372ROCHERJ-Marc0:46:1255494880-669
6481RORASebastien0:48:1353774676-701
15847BACKSCHEIDEREmilie0:48:3655374639-898
22156RIBIEREmmanuel0:49:18N/A4573N/A
18211BLOTGregory0:49:2136764569+893
8593KLEINPierre0:49:2241704567+397
16117TARDYLaetitia0:49:4351514535-616
14691ROZAND-LELOUPEmmanuel0:50:0340954505+410
1398HERMETAndre0:50:2343174475+158
4847CHASTELBernard0:50:5436404430+790
12226PINAUDMichel0:51:4441744358+184
890GODEFROYRene0:52:2849174297-620
12558DUBOISPhilippe0:52:2948034296-507
14676BORCHORST RICARDClarissa0:52:3942364282+46
8108LELOUPAnouk0:52:4645564273-283
12515VUILLAUMEBertrand0:53:2048524228-624
4592ANTOINE-DELAUMESophie0:53:4943404190-150
3194ESTIVALJ-Luc0:53:5748784179-699
4183RAUTURIERCamille0:56:1860134005-2008
14005ABRIOLDaniel0:57:1725803936+1356
14947JOUVEBernard0:59:1342883808-480
10830BESEGAILuc0:59:2331003797+697
8890BARSANTIPatricia0:59:3437773785+8
1980GIESIMaurice1:00:5836803698+18
22780AUGUSTYNOWICZBrice1:01:04N/A3692N/A
1854GUILLONAlain1:01:5346563643-1013
3355CHARIAUJ-Marc1:01:5737783640-138
14576GAFFURIA-Laure1:02:0431033633+530
11554VERBRUGGHEAlain1:02:09N/A3628N/A
1386LELOUPPhilippe1:04:2143323504-828
4810GROCAlain1:04:3837283488-240
16184FAUQUANTJ-Marie1:06:0631453411+266
18056ADOLPHEPhilippe1:06:1428663404+538
4373BONNEAUMathilde1:06:2136393398-241
11036RAIMBAULTLouis1:07:0239953364-631
12053COUTURIERClaude1:07:0433043362+58
1945PHILIPPOTEtienne1:07:4133363331-5
19674GRANCOINMarc1:08:4527623280+518
20554COFFEDaniel1:09:10N/A3260N/A
17777TREILLARDDominique1:10:3836903192-498
13387DEBRABANDEREGilles1:10:4742643185-1079
22408GOURDINCédric1:11:12N/A3167N/A
639GAZAVEJulien1:11:50N/A3139N/A
19215PASSELERGUEMarianne1:12:1332863122-164
18480PAULETSerge1:12:3140473109-938
17309BESTELFlorence1:13:0732273084-143
884GARDEURJulien1:16:4336142939-675
17986CHAUSSINGilles1:17:14N/A2919N/A
912LOUVETEloise1:17:1732652917-348
9126NOYEyal1:18:4734272862-565
15211PARGONSylvain1:19:1322122846+634
2135COMBATBruno1:20:1427782810+32
22385TOMASSIJean Marc1:20:40N/A2795N/A
16263LEDUCFlorian1:21:20N/A2772N/A
16946POTEAUJimmy1:21:50N/A2755N/A
1929CHINCHOLEPaul1:22:0529872747-240
2160ARLANDISJ-Christoph1:25:3329962636-360
22734SAUVESTREDidier1:31:38N/A2461N/A
22426REICHJean-paul1:34:25N/A2388N/A
21220TAISSONSandrine1:34:39N/A2382N/A
22162BERNARDRaymond1:41:13N/A2228N/A
21973AMIARDRenaud1:41:39N/A2218N/A
10745MAINERoxaneN/A47750-4775
22743REYNAUDJonathanN/AN/A0N/A

  Indice de confiance du circuit (moyenne des différences entre CN et score sur la course des 3 à 10 premiers) : 163






 Retour